User: anonymous   Login
Location: Unspecified
(0.0000°N, 0.0000°E)
Time: 00:05:39
(UTC+00:00)
Language:

SJ-6C - Orbit

View from above orbital plane
View from above orbital plane
View from above satellite
View from above satellite

Ground track
Ground track

The orbit data is extracted from the following two-line orbital elements,

1 29505U 06046A   18112.89745376  .00000083  00000-0  13030-4 0  9991
2 29505  97.8276 118.8369 0003948 121.5797 238.5835 14.94427894626127
Epoch (UTC): 22 April 2018 21:32:20
Eccentricity: 0.0003948
inclination: 97.8276°
perigee height: 581 km
apogee height: 587 km
right ascension of ascending node: 118.8369°
argument of perigee: 121.5797°
revolutions per day: 14.94427894
mean anomaly at epoch: 238.5835°
orbit number at epoch: 62612

The dashed part of the orbit path shows where the satellite is in the earth's shadow,  

DLR